Year,Month,Day,Hour,Minute,Value (Times are PST for temperature in C)
2015,08,19,00,00,18.00
2015,08,19,00,01,17.90
2015,08,19,00,02,17.90
2015,08,19,00,03,17.90
2015,08,19,00,04,17.90
2015,08,19,00,05,17.80
2015,08,19,00,06,17.80
2015,08,19,00,07,17.80
2015,08,19,00,08,17.80
2015,08,19,00,09,17.80
2015,08,19,00,10,17.80
2015,08,19,00,11,17.70
2015,08,19,00,12,17.70
2015,08,19,00,13,17.70
2015,08,19,00,14,17.70
2015,08,19,00,15,17.70
2015,08,19,00,16,17.70
2015,08,19,00,17,17.70
2015,08,19,00,18,17.60
2015,08,19,00,19,17.60
2015,08,19,00,20,17.60
2015,08,19,00,21,17.60
2015,08,19,00,22,17.60
2015,08,19,00,23,17.60
2015,08,19,00,24,17.60
2015,08,19,00,25,17.60
2015,08,19,00,26,17.60
2015,08,19,00,27,17.70
2015,08,19,00,28,17.70
2015,08,19,00,29,17.70
2015,08,19,00,30,17.70
2015,08,19,00,31,17.70
2015,08,19,00,32,17.80
2015,08,19,00,33,17.80
2015,08,19,00,34,17.80
2015,08,19,00,35,17.80
2015,08,19,00,36,17.80
2015,08,19,00,37,17.70
2015,08,19,00,38,17.70
2015,08,19,00,39,17.70
2015,08,19,00,40,17.70
2015,08,19,00,41,17.70
2015,08,19,00,42,17.70
2015,08,19,00,43,17.70
2015,08,19,00,44,17.70
2015,08,19,00,45,17.70
2015,08,19,00,46,17.70
2015,08,19,00,47,17.70
2015,08,19,00,48,17.70
2015,08,19,00,49,17.70
2015,08,19,00,50,17.70
2015,08,19,00,51,17.70
2015,08,19,00,52,17.70
2015,08,19,00,53,17.70
2015,08,19,00,54,17.70
2015,08,19,00,55,17.70
2015,08,19,00,56,17.70
2015,08,19,00,57,17.70
2015,08,19,00,58,17.70
2015,08,19,00,59,17.70
2015,08,19,01,00,17.70
2015,08,19,01,01,17.70
2015,08,19,01,02,17.70
2015,08,19,01,03,17.70
2015,08,19,01,04,17.70
2015,08,19,01,05,17.70
2015,08,19,01,06,17.70
2015,08,19,01,07,17.70
2015,08,19,01,08,17.70
2015,08,19,01,09,17.70
2015,08,19,01,10,17.70
2015,08,19,01,11,17.70
2015,08,19,01,12,17.70
2015,08,19,01,13,17.70
2015,08,19,01,14,17.70
2015,08,19,01,15,17.70
2015,08,19,01,16,17.70
2015,08,19,01,17,17.70
2015,08,19,01,18,17.70
2015,08,19,01,19,17.70
2015,08,19,01,20,17.70
2015,08,19,01,21,17.70
2015,08,19,01,22,17.70
2015,08,19,01,23,17.70
2015,08,19,01,24,17.80
2015,08,19,01,25,17.80
2015,08,19,01,26,17.80
2015,08,19,01,27,17.80
2015,08,19,01,28,17.80
2015,08,19,01,29,17.80
2015,08,19,01,30,17.80
2015,08,19,01,31,17.80
2015,08,19,01,32,17.80
2015,08,19,01,33,17.80
2015,08,19,01,34,17.80
2015,08,19,01,35,17.80
2015,08,19,01,36,17.70
2015,08,19,01,37,17.70
2015,08,19,01,38,17.70
2015,08,19,01,39,17.70
2015,08,19,01,40,17.60
2015,08,19,01,41,17.60
2015,08,19,01,42,17.60
2015,08,19,01,43,17.50
2015,08,19,01,44,17.50
2015,08,19,01,45,17.40
2015,08,19,01,46,17.40
2015,08,19,01,47,17.40
2015,08,19,01,48,17.40
2015,08,19,01,49,17.40
2015,08,19,01,50,17.40
2015,08,19,01,51,17.40
2015,08,19,01,52,17.40
2015,08,19,01,53,17.30
2015,08,19,01,54,17.30
2015,08,19,01,55,17.30
2015,08,19,01,56,17.30
2015,08,19,01,57,17.30
2015,08,19,01,58,17.30
2015,08,19,01,59,17.20
2015,08,19,02,00,17.20
2015,08,19,02,01,17.20
2015,08,19,02,02,17.20
2015,08,19,02,03,17.10
2015,08,19,02,04,17.10
2015,08,19,02,05,17.10
2015,08,19,02,06,17.10
2015,08,19,02,07,17.10
2015,08,19,02,08,17.00
2015,08,19,02,09,17.00
2015,08,19,02,10,17.00
2015,08,19,02,11,17.00
2015,08,19,02,12,17.00
2015,08,19,02,13,17.00
2015,08,19,02,14,17.00
2015,08,19,02,15,17.00
2015,08,19,02,16,16.90
2015,08,19,02,17,16.90
2015,08,19,02,18,16.90
2015,08,19,02,19,16.90
2015,08,19,02,20,16.90
2015,08,19,02,21,16.90
2015,08,19,02,22,16.90
2015,08,19,02,23,16.90
2015,08,19,02,24,16.90
2015,08,19,02,25,16.90
2015,08,19,02,26,16.80
2015,08,19,02,27,16.80
2015,08,19,02,28,16.80
2015,08,19,02,29,16.80
2015,08,19,02,30,16.80
2015,08,19,02,31,16.70
2015,08,19,02,32,16.70
2015,08,19,02,33,16.70
2015,08,19,02,34,16.70
2015,08,19,02,35,16.60
2015,08,19,02,36,16.60
2015,08,19,02,37,16.60
2015,08,19,02,38,16.60
2015,08,19,02,39,16.60
2015,08,19,02,40,16.60
2015,08,19,02,41,16.50
2015,08,19,02,42,16.50
2015,08,19,02,43,16.50
2015,08,19,02,44,16.50
2015,08,19,02,45,16.50
2015,08,19,02,46,16.50
2015,08,19,02,47,16.50
2015,08,19,02,48,16.50
2015,08,19,02,49,16.50
2015,08,19,02,50,16.50
2015,08,19,02,51,16.50
2015,08,19,02,52,16.60
2015,08,19,02,53,16.60
2015,08,19,02,54,16.60
2015,08,19,02,55,16.60
2015,08,19,02,56,16.60
2015,08,19,02,57,16.60
2015,08,19,02,58,16.60
2015,08,19,02,59,16.60
2015,08,19,03,00,16.60
2015,08,19,03,01,16.70
2015,08,19,03,02,16.70
2015,08,19,03,03,16.70
2015,08,19,03,04,16.70
2015,08,19,03,05,16.70
2015,08,19,03,06,16.70
2015,08,19,03,07,16.60
2015,08,19,03,08,16.70
2015,08,19,03,09,16.70
2015,08,19,03,10,16.70
2015,08,19,03,11,16.70
2015,08,19,03,12,16.60
2015,08,19,03,13,16.60
2015,08,19,03,14,16.60
2015,08,19,03,15,16.60
2015,08,19,03,16,16.60
2015,08,19,03,17,16.60
2015,08,19,03,18,16.50
2015,08,19,03,19,16.50
2015,08,19,03,20,16.50
2015,08,19,03,21,16.40
2015,08,19,03,22,16.40
2015,08,19,03,23,16.30
2015,08,19,03,24,16.30
2015,08,19,03,25,16.30
2015,08,19,03,26,16.30
2015,08,19,03,27,16.30
2015,08,19,03,28,16.30
2015,08,19,03,29,16.20
2015,08,19,03,30,16.20
2015,08,19,03,31,16.20
2015,08,19,03,32,16.20
2015,08,19,03,33,16.20
2015,08,19,03,34,16.20
2015,08,19,03,35,16.20
2015,08,19,03,36,16.20
2015,08,19,03,37,16.30
2015,08,19,03,38,16.30
2015,08,19,03,39,16.30
2015,08,19,03,40,16.30
2015,08,19,03,41,16.30
2015,08,19,03,42,16.40
2015,08,19,03,43,16.40
2015,08,19,03,44,16.40
2015,08,19,03,45,16.40
2015,08,19,03,46,16.40
2015,08,19,03,47,16.40
2015,08,19,03,48,16.40
2015,08,19,03,49,16.40
2015,08,19,03,50,16.40
2015,08,19,03,51,16.40
2015,08,19,03,52,16.40
2015,08,19,03,53,16.40
2015,08,19,03,54,16.40
2015,08,19,03,55,16.40
2015,08,19,03,56,16.40
2015,08,19,03,57,16.40
2015,08,19,03,58,16.50
2015,08,19,03,59,16.50
2015,08,19,04,00,16.50
2015,08,19,04,01,16.50
2015,08,19,04,02,16.50
2015,08,19,04,03,16.50
2015,08,19,04,04,16.50
2015,08,19,04,05,16.50
2015,08,19,04,06,16.50
2015,08,19,04,07,16.50
2015,08,19,04,08,16.40
2015,08,19,04,09,16.40
2015,08,19,04,10,16.40
2015,08,19,04,11,16.40
2015,08,19,04,12,16.40
2015,08,19,04,13,16.40
2015,08,19,04,14,16.30
2015,08,19,04,15,16.30
2015,08,19,04,16,16.30
2015,08,19,04,17,16.30
2015,08,19,04,18,16.20
2015,08,19,04,19,16.20
2015,08,19,04,20,16.20
2015,08,19,04,21,16.10
2015,08,19,04,22,16.10
2015,08,19,04,23,16.10
2015,08,19,04,24,16.10
2015,08,19,04,25,16.00
2015,08,19,04,26,15.90
2015,08,19,04,27,15.90
2015,08,19,04,28,15.90
2015,08,19,04,29,15.80
2015,08,19,04,30,15.80
2015,08,19,04,31,15.80
2015,08,19,04,32,15.80
2015,08,19,04,33,15.80
2015,08,19,04,34,15.80
2015,08,19,04,35,15.80
2015,08,19,04,36,15.70
2015,08,19,04,37,15.70
2015,08,19,04,38,15.70
2015,08,19,04,39,15.70
2015,08,19,04,40,15.70
2015,08,19,04,41,15.70
2015,08,19,04,42,15.70
2015,08,19,04,43,15.70
2015,08,19,04,44,15.70
2015,08,19,04,45,15.80
2015,08,19,04,46,15.80
2015,08,19,04,47,15.80
2015,08,19,04,48,15.80
2015,08,19,04,49,15.80
2015,08,19,04,50,15.80
2015,08,19,04,51,15.80
2015,08,19,04,52,15.80
2015,08,19,04,53,15.80
2015,08,19,04,54,15.80
2015,08,19,04,55,15.80
2015,08,19,04,56,15.80
2015,08,19,04,57,15.80
2015,08,19,04,58,15.80
2015,08,19,04,59,15.80
2015,08,19,05,00,15.80
2015,08,19,05,01,15.90
2015,08,19,05,02,15.90
2015,08,19,05,03,15.90
2015,08,19,05,04,15.90
2015,08,19,05,05,15.90
2015,08,19,05,06,15.80
2015,08,19,05,07,15.80
2015,08,19,05,08,15.80
2015,08,19,05,09,15.80
2015,08,19,05,10,15.80
2015,08,19,05,11,15.80
2015,08,19,05,12,15.80
2015,08,19,05,13,15.80
2015,08,19,05,14,15.80
2015,08,19,05,15,15.80
2015,08,19,05,16,15.80
2015,08,19,05,17,15.80
2015,08,19,05,18,15.80
2015,08,19,05,19,15.80
2015,08,19,05,20,15.80
2015,08,19,05,21,15.80
2015,08,19,05,22,15.80
2015,08,19,05,23,15.80
2015,08,19,05,24,15.80
2015,08,19,05,25,15.80
2015,08,19,05,26,15.80
2015,08,19,05,27,15.80
2015,08,19,05,28,15.80
2015,08,19,05,29,15.90
2015,08,19,05,30,15.90
2015,08,19,05,31,15.90
2015,08,19,05,32,15.90
2015,08,19,05,33,15.90
2015,08,19,05,34,15.90
2015,08,19,05,35,15.90
2015,08,19,05,36,15.90
2015,08,19,05,37,15.90
2015,08,19,05,38,15.90
2015,08,19,05,39,15.90
2015,08,19,05,40,15.90
2015,08,19,05,41,15.90
2015,08,19,05,42,15.90
2015,08,19,05,43,15.90
2015,08,19,05,44,15.90
2015,08,19,05,45,16.00
2015,08,19,05,46,16.00
2015,08,19,05,47,16.10
2015,08,19,05,48,16.10
2015,08,19,05,49,16.10
2015,08,19,05,50,16.10
2015,08,19,05,51,16.10
2015,08,19,05,52,16.10
2015,08,19,05,53,16.00
2015,08,19,05,54,16.00
2015,08,19,05,55,16.00
2015,08,19,05,56,16.00
2015,08,19,05,57,16.00
2015,08,19,05,58,15.90
2015,08,19,05,59,15.90
2015,08,19,06,00,15.90
2015,08,19,06,01,15.80
2015,08,19,06,02,15.80
2015,08,19,06,03,15.80
2015,08,19,06,04,15.80
2015,08,19,06,05,15.70
2015,08,19,06,06,15.70
2015,08,19,06,07,15.70
2015,08,19,06,08,15.70
2015,08,19,06,09,15.60
2015,08,19,06,10,15.60
2015,08,19,06,11,15.60
2015,08,19,06,12,15.60
2015,08,19,06,13,15.50
2015,08,19,06,14,15.50
2015,08,19,06,15,15.50
2015,08,19,06,16,15.50
2015,08,19,06,17,15.50
2015,08,19,06,18,15.40
2015,08,19,06,19,15.40
2015,08,19,06,20,15.40
2015,08,19,06,21,15.40
2015,08,19,06,22,15.40
2015,08,19,06,23,15.40
2015,08,19,06,24,15.30
2015,08,19,06,25,15.30
2015,08,19,06,26,15.30
2015,08,19,06,27,15.30
2015,08,19,06,28,15.30
2015,08,19,06,29,15.30
2015,08,19,06,30,15.30
2015,08,19,06,31,15.20
2015,08,19,06,32,15.20
2015,08,19,06,33,15.20
2015,08,19,06,34,15.20
2015,08,19,06,35,15.10
2015,08,19,06,36,15.10
2015,08,19,06,37,15.10
2015,08,19,06,38,15.10
2015,08,19,06,39,15.10
2015,08,19,06,40,15.10
2015,08,19,06,41,15.10
2015,08,19,06,42,15.10
2015,08,19,06,43,15.10
2015,08,19,06,44,15.10
2015,08,19,06,45,15.10
2015,08,19,06,46,15.10
2015,08,19,06,47,15.10
2015,08,19,06,48,15.10
2015,08,19,06,49,15.10
2015,08,19,06,50,15.00
2015,08,19,06,51,15.00
2015,08,19,06,52,15.00
2015,08,19,06,53,15.00
2015,08,19,06,54,15.00
2015,08,19,06,55,15.00
2015,08,19,06,56,15.00
2015,08,19,06,57,15.00
2015,08,19,06,58,15.00
2015,08,19,06,59,15.00
2015,08,19,07,00,15.00
2015,08,19,07,01,15.10
2015,08,19,07,02,15.00
2015,08,19,07,03,15.00
2015,08,19,07,04,15.10
2015,08,19,07,05,15.10
2015,08,19,07,06,15.10
2015,08,19,07,07,15.10
2015,08,19,07,08,15.10
2015,08,19,07,09,15.20
2015,08,19,07,10,15.20
2015,08,19,07,11,15.20
2015,08,19,07,12,15.20
2015,08,19,07,13,15.30
2015,08,19,07,14,15.30
2015,08,19,07,15,15.30
2015,08,19,07,16,15.30
2015,08,19,07,17,15.40
2015,08,19,07,18,15.40
2015,08,19,07,19,15.50
2015,08,19,07,20,15.50
2015,08,19,07,21,15.60
2015,08,19,07,22,15.70
2015,08,19,07,23,15.70
2015,08,19,07,24,15.70
2015,08,19,07,25,15.80
2015,08,19,07,26,15.90
2015,08,19,07,27,16.00
2015,08,19,07,28,16.10
2015,08,19,07,29,16.20
2015,08,19,07,30,16.30
2015,08,19,07,31,16.50
2015,08,19,07,32,16.60
2015,08,19,07,33,16.80
2015,08,19,07,34,17.00
2015,08,19,07,35,17.20
2015,08,19,07,36,17.30
2015,08,19,07,37,17.50
2015,08,19,07,38,17.60
2015,08,19,07,39,17.70
2015,08,19,07,40,17.80
2015,08,19,07,41,17.90
2015,08,19,07,42,18.00
2015,08,19,07,43,18.10
2015,08,19,07,44,18.20
2015,08,19,07,45,18.30
2015,08,19,07,46,18.40
2015,08,19,07,47,18.40
2015,08,19,07,48,18.50
2015,08,19,07,49,18.60
2015,08,19,07,50,18.60
2015,08,19,07,51,18.70
2015,08,19,07,52,18.70
2015,08,19,07,53,18.70
2015,08,19,07,54,18.80
2015,08,19,07,55,18.80
2015,08,19,07,56,18.90
2015,08,19,07,57,19.00
2015,08,19,07,58,19.10
2015,08,19,07,59,19.10
2015,08,19,08,00,19.20
2015,08,19,08,01,19.20
2015,08,19,08,02,19.20
2015,08,19,08,03,19.30
2015,08,19,08,04,19.30
2015,08,19,08,05,19.30
2015,08,19,08,06,19.20
2015,08,19,08,07,19.20
2015,08,19,08,08,19.20
2015,08,19,08,09,19.30
2015,08,19,08,10,19.30
2015,08,19,08,11,19.30
2015,08,19,08,12,19.30
2015,08,19,08,13,19.30
2015,08,19,08,14,19.30
2015,08,19,08,15,19.30
2015,08,19,08,16,19.40
2015,08,19,08,17,19.40
2015,08,19,08,18,19.40
2015,08,19,08,19,19.40
2015,08,19,08,20,19.50
2015,08,19,08,21,19.50
2015,08,19,08,22,19.60
2015,08,19,08,23,19.60
2015,08,19,08,24,19.70
2015,08,19,08,25,19.70
2015,08,19,08,26,19.80
2015,08,19,08,27,19.80
2015,08,19,08,28,19.80
2015,08,19,08,29,19.80
2015,08,19,08,30,19.80
2015,08,19,08,31,19.80
2015,08,19,08,32,19.90
2015,08,19,08,33,19.90
2015,08,19,08,34,20.00
2015,08,19,08,35,20.00
2015,08,19,08,36,20.00
2015,08,19,08,37,20.10
2015,08,19,08,38,20.10
2015,08,19,08,39,20.20
2015,08,19,08,40,20.20
2015,08,19,08,41,20.30
2015,08,19,08,42,20.30
2015,08,19,08,43,20.40
2015,08,19,08,44,20.40
2015,08,19,08,45,20.50
2015,08,19,08,46,20.50
2015,08,19,08,47,20.50
2015,08,19,08,48,20.50
2015,08,19,08,49,20.50
2015,08,19,08,50,20.50
2015,08,19,08,51,20.50
2015,08,19,08,52,20.50
2015,08,19,08,53,20.50
2015,08,19,08,54,20.50
2015,08,19,08,55,20.60
2015,08,19,08,56,20.60
2015,08,19,08,57,20.60
2015,08,19,08,58,20.60
2015,08,19,08,59,20.60
2015,08,19,10,06,22.10
2015,08,19,10,07,22.10
2015,08,19,10,08,22.00
2015,08,19,10,09,21.90
2015,08,19,10,10,21.80
2015,08,19,10,11,21.80
2015,08,19,10,12,21.70
2015,08,19,10,13,21.70
2015,08,19,10,14,21.70
2015,08,19,10,15,21.50
2015,08,19,10,16,21.40
2015,08,19,10,17,21.30
2015,08,19,10,18,21.30
2015,08,19,10,19,21.20
2015,08,19,10,20,21.10
2015,08,19,10,21,21.10
2015,08,19,10,22,21.10
2015,08,19,10,23,21.10
2015,08,19,10,24,21.10
2015,08,19,10,25,21.10
2015,08,19,10,26,21.10
2015,08,19,10,27,21.20
2015,08,19,10,28,21.20
2015,08,19,10,29,21.20
2015,08,19,10,30,21.20
2015,08,19,10,31,21.30
2015,08,19,10,32,21.30
2015,08,19,10,33,21.40
2015,08,19,10,34,21.50
2015,08,19,10,35,21.60
2015,08,19,10,36,21.70
2015,08,19,10,37,21.70
2015,08,19,10,38,21.80
2015,08,19,10,39,21.80
2015,08,19,10,40,21.90
2015,08,19,10,41,21.90
2015,08,19,10,42,22.00
2015,08,19,10,43,22.00
2015,08,19,10,44,22.00
2015,08,19,10,45,22.10
2015,08,19,10,46,22.20
2015,08,19,10,47,22.20
2015,08,19,10,48,22.20
2015,08,19,10,49,22.20
2015,08,19,10,50,22.10
2015,08,19,10,51,22.10
2015,08,19,10,52,22.10
2015,08,19,10,53,22.20
2015,08,19,10,54,22.20
2015,08,19,10,55,22.30
2015,08,19,10,56,22.20
2015,08,19,10,57,22.20
2015,08,19,10,58,22.20
2015,08,19,10,59,22.20
2015,08,19,11,00,22.30
2015,08,19,11,01,22.40
2015,08,19,11,02,22.50
2015,08,19,11,03,22.50
2015,08,19,11,04,22.60
2015,08,19,11,05,22.80
2015,08,19,11,06,22.90
2015,08,19,11,07,22.90
2015,08,19,11,08,23.00
2015,08,19,11,09,23.00
2015,08,19,11,10,23.10
2015,08,19,11,11,23.20
2015,08,19,11,12,23.30
2015,08,19,11,13,23.30
2015,08,19,11,14,23.30
2015,08,19,11,15,23.30
2015,08,19,11,16,23.30
2015,08,19,11,17,23.20
2015,08,19,11,18,23.20
2015,08,19,11,19,23.20
2015,08,19,11,20,23.20
2015,08,19,11,21,23.30
2015,08,19,11,22,23.40
2015,08,19,11,23,23.50
2015,08,19,11,24,23.60
2015,08,19,11,25,23.70
2015,08,19,11,26,23.80
2015,08,19,11,27,23.80
2015,08,19,11,28,23.90
2015,08,19,11,29,23.90
2015,08,19,11,30,23.80
2015,08,19,11,31,23.80
2015,08,19,11,32,23.70
2015,08,19,11,33,23.70
2015,08,19,11,34,23.70
2015,08,19,11,35,23.70
2015,08,19,11,36,23.70
2015,08,19,11,37,23.70
2015,08,19,11,38,23.70
2015,08,19,11,39,23.80
2015,08,19,11,40,23.80
2015,08,19,11,41,23.90
2015,08,19,11,42,23.90
2015,08,19,11,43,24.00
2015,08,19,11,44,24.00
2015,08,19,11,45,24.10
2015,08,19,11,46,24.00
2015,08,19,11,47,24.00
2015,08,19,11,48,24.00
2015,08,19,11,49,24.00
2015,08,19,11,50,24.00
2015,08,19,11,51,24.00
2015,08,19,11,52,24.00
2015,08,19,11,53,24.00
2015,08,19,11,54,24.10
2015,08,19,11,55,24.00
2015,08,19,11,56,24.00
2015,08,19,11,57,23.90
2015,08,19,11,58,23.90
2015,08,19,11,59,23.80
2015,08,19,12,00,23.80
2015,08,19,12,01,23.70
2015,08,19,12,02,23.70
2015,08,19,12,03,23.60
2015,08,19,12,04,23.70
2015,08,19,12,05,23.70
2015,08,19,12,06,23.70
2015,08,19,12,07,23.70
2015,08,19,12,08,23.70
2015,08,19,12,09,23.80
2015,08,19,12,10,23.80
2015,08,19,12,11,23.80
2015,08,19,12,12,23.80
2015,08,19,12,13,23.80
2015,08,19,12,14,23.90
2015,08,19,12,15,24.00
2015,08,19,12,16,24.10
2015,08,19,12,17,24.00
2015,08,19,12,18,24.00
2015,08,19,12,19,23.90
2015,08,19,12,20,23.80
2015,08,19,12,21,23.70
2015,08,19,12,22,23.70
2015,08,19,12,23,23.60
2015,08,19,12,24,23.60
2015,08,19,12,25,23.70
2015,08,19,12,26,23.80
2015,08,19,12,27,23.80
2015,08,19,12,28,23.90
2015,08,19,12,29,24.00
2015,08,19,12,30,24.10
2015,08,19,12,31,24.30
2015,08,19,12,32,24.50
2015,08,19,12,33,24.60
2015,08,19,12,34,24.60
2015,08,19,12,35,24.40
2015,08,19,12,36,24.30
2015,08,19,12,37,24.20
2015,08,19,12,38,24.10
2015,08,19,12,39,24.10
2015,08,19,12,40,24.10
2015,08,19,12,41,24.00
2015,08,19,12,42,24.10
2015,08,19,12,43,24.00
2015,08,19,12,44,23.90
2015,08,19,12,45,23.80
2015,08,19,12,46,23.80
2015,08,19,12,47,23.80
2015,08,19,12,48,23.80
2015,08,19,12,49,23.80
2015,08,19,12,50,23.80
2015,08,19,12,51,23.80
2015,08,19,12,52,23.90
2015,08,19,12,53,23.90
2015,08,19,12,54,23.90
2015,08,19,12,55,24.00
2015,08,19,12,56,24.10
2015,08,19,12,57,24.20
2015,08,19,12,58,24.20
2015,08,19,12,59,24.20
2015,08,19,13,00,24.20
2015,08,19,13,01,24.30
2015,08,19,13,02,24.20
2015,08,19,13,03,24.20
2015,08,19,13,04,24.20
2015,08,19,13,05,24.20
2015,08,19,13,06,24.20
2015,08,19,13,07,24.20
2015,08,19,13,08,24.10
2015,08,19,13,09,24.10
2015,08,19,13,10,24.10
2015,08,19,13,11,24.10
2015,08,19,13,12,24.10
2015,08,19,13,13,24.00
2015,08,19,13,14,23.90
2015,08,19,13,15,23.80
2015,08,19,13,16,23.80
2015,08,19,13,17,23.70
2015,08,19,13,18,23.60
2015,08,19,13,19,23.40
2015,08,19,13,20,23.00
2015,08,19,13,21,22.70
2015,08,19,13,22,22.50
2015,08,19,13,23,22.30
2015,08,19,13,24,22.20
2015,08,19,13,25,22.30
2015,08,19,13,26,22.30
2015,08,19,13,27,22.30
2015,08,19,13,28,22.40
2015,08,19,13,29,22.60
2015,08,19,13,30,22.60
2015,08,19,13,31,22.70
2015,08,19,13,32,22.70
2015,08,19,13,33,22.80
2015,08,19,13,34,22.80
2015,08,19,13,35,22.80
2015,08,19,13,36,22.90
2015,08,19,13,37,23.00
2015,08,19,13,38,23.10
2015,08,19,13,39,23.20
2015,08,19,13,40,23.20
2015,08,19,13,41,23.20
2015,08,19,13,42,23.30
2015,08,19,13,43,23.30
2015,08,19,13,44,23.30
2015,08,19,13,45,23.40
2015,08,19,13,46,23.40
2015,08,19,13,47,23.40
2015,08,19,13,48,23.40
2015,08,19,13,49,23.50
2015,08,19,13,50,23.50
2015,08,19,13,51,23.50
2015,08,19,13,52,23.50
2015,08,19,13,53,23.40
2015,08,19,13,54,23.40
2015,08,19,13,55,23.50
2015,08,19,13,56,23.50
2015,08,19,13,57,23.50
2015,08,19,13,58,23.50
2015,08,19,13,59,23.60
2015,08,19,14,00,23.70
2015,08,19,14,01,23.70
2015,08,19,14,02,23.70
2015,08,19,14,03,23.60
2015,08,19,14,04,23.60
2015,08,19,14,05,23.60
2015,08,19,14,06,23.60
2015,08,19,14,07,23.60
2015,08,19,14,08,23.60
2015,08,19,14,09,23.60
2015,08,19,14,10,23.70
2015,08,19,14,11,23.70
2015,08,19,14,12,23.70
2015,08,19,14,13,23.80
2015,08,19,14,14,23.70
2015,08,19,14,15,23.60
2015,08,19,14,16,23.70
2015,08,19,14,17,23.80
2015,08,19,14,18,23.80
2015,08,19,14,19,23.90
2015,08,19,14,20,23.90
2015,08,19,14,21,24.00
2015,08,19,14,22,24.10
2015,08,19,14,23,24.10
2015,08,19,14,24,24.00
2015,08,19,14,25,24.00
2015,08,19,14,26,24.00
2015,08,19,14,27,24.00
2015,08,19,14,28,24.10
2015,08,19,14,29,24.10
2015,08,19,14,30,24.10
2015,08,19,14,31,24.10
2015,08,19,14,32,24.10
2015,08,19,14,33,24.20
2015,08,19,14,34,24.20
2015,08,19,14,35,24.30
2015,08,19,14,36,24.40
2015,08,19,14,37,24.50
2015,08,19,14,38,24.40
2015,08,19,14,39,24.30
2015,08,19,14,40,24.30
2015,08,19,14,41,24.20
2015,08,19,14,42,24.10
2015,08,19,14,43,24.10
2015,08,19,14,44,24.00
2015,08,19,14,45,24.10
2015,08,19,14,46,24.10
2015,08,19,14,47,24.10
2015,08,19,14,48,24.20
2015,08,19,14,49,24.20
2015,08,19,14,50,24.20
2015,08,19,14,51,24.10
2015,08,19,14,52,24.10
2015,08,19,14,53,24.20
2015,08,19,14,54,24.30
2015,08,19,14,55,24.40
2015,08,19,14,56,24.40
2015,08,19,14,57,24.50
2015,08,19,14,58,24.50
2015,08,19,14,59,24.60
2015,08,19,15,00,24.60
2015,08,19,15,01,24.50
2015,08,19,15,02,24.50
2015,08,19,15,03,24.40
2015,08,19,15,04,24.40
2015,08,19,15,05,24.40
2015,08,19,15,06,24.40
2015,08,19,15,07,24.40
2015,08,19,15,08,24.40
2015,08,19,15,09,24.40
2015,08,19,15,10,24.40
2015,08,19,15,11,24.40
2015,08,19,15,12,24.40
2015,08,19,15,13,24.50
2015,08,19,15,14,24.50
2015,08,19,15,15,24.60
2015,08,19,15,16,24.60
2015,08,19,15,17,24.70
2015,08,19,15,18,24.70
2015,08,19,15,19,24.70
2015,08,19,15,20,24.70
2015,08,19,15,21,24.60
2015,08,19,15,22,24.60
2015,08,19,15,23,24.60
2015,08,19,15,24,24.70
2015,08,19,15,25,24.70
2015,08,19,15,26,24.80
2015,08,19,15,27,24.80
2015,08,19,15,28,24.80
2015,08,19,15,29,24.90
2015,08,19,15,30,24.90
2015,08,19,15,31,24.90
2015,08,19,15,32,25.00
2015,08,19,15,33,25.00
2015,08,19,15,34,24.90
2015,08,19,15,35,24.90
2015,08,19,15,36,25.00
2015,08,19,15,37,25.00
2015,08,19,15,38,25.00
2015,08,19,15,39,24.90
2015,08,19,15,40,24.70
2015,08,19,15,41,24.70
2015,08,19,15,42,24.50
2015,08,19,15,43,24.40
2015,08,19,15,44,24.30
2015,08,19,15,45,24.30
2015,08,19,15,46,24.30
2015,08,19,15,47,24.40
2015,08,19,15,48,24.40
2015,08,19,15,49,24.40
2015,08,19,15,50,24.50
2015,08,19,15,51,24.60
2015,08,19,15,52,24.60
2015,08,19,15,53,24.60
2015,08,19,15,54,24.60
2015,08,19,15,55,24.70
2015,08,19,15,56,24.70
2015,08,19,15,57,24.80
2015,08,19,15,58,24.90
2015,08,19,15,59,25.00
2015,08,19,16,00,25.10
2015,08,19,16,01,25.20
2015,08,19,16,02,25.30
2015,08,19,16,03,25.30
2015,08,19,16,04,25.40
2015,08,19,16,05,25.50
2015,08,19,16,06,25.60
2015,08,19,16,07,25.60
2015,08,19,16,08,25.60
2015,08,19,16,09,25.60
2015,08,19,16,10,25.60
2015,08,19,16,11,25.40
2015,08,19,16,12,25.40
2015,08,19,16,13,25.30
2015,08,19,16,14,25.30
2015,08,19,16,15,25.20
2015,08,19,16,16,25.30
2015,08,19,16,17,25.30
2015,08,19,16,18,25.30
2015,08,19,16,19,25.30
2015,08,19,16,20,25.30
2015,08,19,16,21,25.30
2015,08,19,16,22,25.30
2015,08,19,16,23,25.20
2015,08,19,16,24,25.20
2015,08,19,16,25,25.20
2015,08,19,16,26,25.30
2015,08,19,16,27,25.30
2015,08,19,16,28,25.30
2015,08,19,16,29,25.40
2015,08,19,16,30,25.40
2015,08,19,16,31,25.40
2015,08,19,16,32,25.40
2015,08,19,16,33,25.40
2015,08,19,16,34,25.50
2015,08,19,16,35,25.50
2015,08,19,16,36,25.50
2015,08,19,16,37,25.40
2015,08,19,16,38,25.50
2015,08,19,16,39,25.60
2015,08,19,16,40,25.60
2015,08,19,16,41,25.60
2015,08,19,16,42,25.70
2015,08,19,16,43,25.70
2015,08,19,16,44,25.70
2015,08,19,16,45,25.60
2015,08,19,16,46,25.50
2015,08,19,16,47,25.50
2015,08,19,16,48,25.40
2015,08,19,16,49,25.40
2015,08,19,16,50,25.40
2015,08,19,16,51,25.40
2015,08,19,16,52,25.40
2015,08,19,16,53,25.40
2015,08,19,16,54,25.40
2015,08,19,16,55,25.50
2015,08,19,16,56,25.50
2015,08,19,16,57,25.50
2015,08,19,16,58,25.40
2015,08,19,16,59,25.40
2015,08,19,17,00,25.30
2015,08,19,17,01,25.30
2015,08,19,17,02,25.40
2015,08,19,17,03,25.40
2015,08,19,17,04,25.40
2015,08,19,17,05,25.40
2015,08,19,17,06,25.40
2015,08,19,17,07,25.30
2015,08,19,17,08,25.30
2015,08,19,17,09,25.40
2015,08,19,17,10,25.40
2015,08,19,17,11,25.40
2015,08,19,17,12,25.30
2015,08,19,17,13,25.30
2015,08,19,17,14,25.20
2015,08,19,17,15,25.20
2015,08,19,17,16,25.10
2015,08,19,17,17,25.10
2015,08,19,17,18,25.00
2015,08,19,17,19,25.00
2015,08,19,17,20,24.90
2015,08,19,17,21,24.90
2015,08,19,17,22,24.90
2015,08,19,17,23,24.90
2015,08,19,17,24,24.90
2015,08,19,17,25,24.90
2015,08,19,17,26,24.90
2015,08,19,17,27,24.80
2015,08,19,17,28,24.80
2015,08,19,17,29,24.70
2015,08,19,17,30,24.70
2015,08,19,17,31,24.60
2015,08,19,17,32,24.60
2015,08,19,17,33,24.60
2015,08,19,17,34,24.60
2015,08,19,17,35,24.50
2015,08,19,17,36,24.50
2015,08,19,17,37,24.40
2015,08,19,17,38,24.40
2015,08,19,17,39,24.40
2015,08,19,17,40,24.40
2015,08,19,17,41,24.40
2015,08,19,17,42,24.40
2015,08,19,17,43,24.40
2015,08,19,17,44,24.30
2015,08,19,17,45,24.30
2015,08,19,17,46,24.30
2015,08,19,17,47,24.20
2015,08,19,17,48,24.10
2015,08,19,17,49,24.10
2015,08,19,17,50,24.10
2015,08,19,17,51,24.10
2015,08,19,17,52,24.10
2015,08,19,17,53,24.10
2015,08,19,17,54,24.10
2015,08,19,17,55,24.10
2015,08,19,17,56,24.10
2015,08,19,17,57,24.10
2015,08,19,17,58,24.10
2015,08,19,17,59,24.10
2015,08,19,18,00,24.00
2015,08,19,18,01,24.00
2015,08,19,18,02,23.90
2015,08,19,18,03,23.90
2015,08,19,18,04,23.80
2015,08,19,18,05,23.80
2015,08,19,18,06,23.70
2015,08,19,18,07,23.70
2015,08,19,18,08,23.70
2015,08,19,18,09,23.70
2015,08,19,18,10,23.70
2015,08,19,18,11,23.60
2015,08,19,18,12,23.60
2015,08,19,18,13,23.70
2015,08,19,18,14,23.70
2015,08,19,18,15,23.70
2015,08,19,18,16,23.70
2015,08,19,18,17,23.70
2015,08,19,18,18,23.70
2015,08,19,18,19,23.60
2015,08,19,18,20,23.60
2015,08,19,18,21,23.60
2015,08,19,18,22,23.60
2015,08,19,18,23,23.50
2015,08,19,18,24,23.50
2015,08,19,18,25,23.60